Regional Weather Roundup
Issued by NWS Charleston, WV

Home | Current Version | Previous Version | Graphics & Text | Print | Product List | Glossary On
Versions: 1 2 3 4 5 6 7 8 9 10 11 12 13 14 15 16 17 18 19 20 21 22 23 24 25 26 27
000
ASUS41 KRLX 302310
RWRRLX
West Virginia Regional Weather Roundup
National Weather Service Charleston WV
700 PM EDT MON MAY 30 2016

Note: "fair" indicates few or no clouds below 12,000 feet with no
significant weather and/or obstructions to visibility.

WVZ003-310000-
Northern Panhandle of West Virginia

CITY           SKY/WX    TMP DP  RH WIND       PRES   REMARKS
WHEELING         N/A     81  55  40 W9        29.98S
$$

WVZ009-310000-
Northwest West Virginia

CITY           SKY/WX    TMP DP  RH WIND       PRES   REMARKS
PARKERSBURG      N/A     83  60  45 NW7       29.99F
$$

WVZ006-310000-
Western West Virginia

CITY           SKY/WX    TMP DP  RH WIND       PRES   REMARKS
HUNTINGTON       N/A     83  57  41 N8        29.97F
$$

WVZ015-310000-
West Central West Virginia

CITY           SKY/WX    TMP DP  RH WIND       PRES   REMARKS
CHARLESTON       N/A     83  61  47 N5        29.97F
$$

WVZ022-031-310000-
North Central West Virginia

CITY           SKY/WX    TMP DP  RH WIND       PRES   REMARKS
CLARKSBURG       N/A     76  64  66 NE3       29.97F
MORGANTOWN     PTSUNNY   82  60  47 N7        29.98S
$$

WVZ025-035-042-045-310000-
Southern West Virginia

CITY           SKY/WX    TMP DP  RH WIND       PRES   REMARKS
BECKLEY          N/A     75  57  53 N9        30.03S
LOGAN            N/A     81  63  54 CALM      30.00S
BLUEFIELD        N/A     76  57  51 N5        30.05S
LEWISBURG        N/A     72  61  67 E6        30.03R
$$

WVZ047-310000-
Northern Mountains of West Virginia

CITY           SKY/WX    TMP DP  RH WIND       PRES   REMARKS
ELKINS           N/A     77  57  50 N5        30.02S
$$

WVZ052-310000-
Eastern Panhandle of West Virginia

CITY           SKY/WX    TMP DP  RH WIND       PRES   REMARKS
MARTINSBURG    PTSUNNY   79  63  57 NW5       29.93R
PETERSBURG     CLOUDY    81  68  64 S6        29.96R
$$




USA.gov is the U.S. government's official web portal to all federal, state and local government web resources and services.